Wilmington, DE

5:16 PM EDT on April 28, 2017 (GMT -0400)
New Castle County

Weather History for KILG - September, 2013

Change the Weather History Date:

Saturday, September 14, 2013

  Actual Average Record
Temperature  
Mean Temperature 58 °F 69 °F  
Max Temperature 68 °F 78 °F 93 °F (2016)
Min Temperature 48 °F 59 °F 40 °F (1911)
Degree Days  
Heating Degree Days 7 1  
Month to date heating degree days 9 7  
Since 1 July heating degree days 9 9  
Cooling Degree Days 0 5  
Month to date cooling degree days 104 88  
Year to date cooling degree days 1189 1081  
Growing Degree Days 8 (Base 50)    
Moisture  
Dew Point 46 °F    
Average Humidity 66    
Maximum Humidity 86    
Minimum Humidity 45    
Precipitation  
Precipitation 0.00 in 0.15 in 3.72 in (1966)
Month to date precipitation 0.45 1.80  
Year to date precipitation 36.78 30.56  
Snow  
Snow 0.00 in 0.00 in 0.00 in (1894)
Month to date snowfall 0.0 0.0  
Since 1 July snowfall 0.0 0.0  
Since 1 September snowfall 0.0 0.0  
Snow Depth 0.00 in    
Sea Level Pressure  
Sea Level Pressure 30.05 in    
Wind  
Wind Speed 8 mph (NNW)    
Max Wind Speed 18 mph    
Max Gust Speed 23 mph    
Visibility 10 miles    
Events      
T = Trace of Precipitation, MM = Missing Value Source: NWS Daily Summary

Daily Weather History Graph

Daily Weather History Graph

Search for Another Location

Airport or City:

Trip Planner

Search our weather history database for the weather conditions in past years. The results will help you decide how hot, cold, wet, or windy it might be!

Date:

Astronomy

Sep. 14, 2013 Rise Set
Actual Time 6:42 AM EDT 7:12 PM EDT
Civil Twilight 6:15 AM EDT 7:39 PM EDT
Nautical Twilight 5:43 AM EDT 8:11 PM EDT
Astronomical Twilight 5:11 AM EDT 8:43 PM EDT
Moon 3:51 PM EDT (9/14) 1:12 AM EDT (9/14)
Length of Visible Light 13h 23m
Length of Day
12h 29m
Waxing Gibbous, 72% of the Moon is Illuminated
Sep 14
Waxing Gibbous
Sep 19
Full
Sep 26
Last Quarter
Oct 4
New
Oct 11
First Quarter

Hourly Weather History & Observations

Time (EDT) Temp. Dew Point Humidity Pressure Visibility Wind Dir Wind Speed Gust Speed Precip Events Conditions
12:51 AM 57.9 °F 48.9 °F 72% 29.93 in 10.0 mi NNW 9.2 mph - N/A   Clear
1:51 AM 57.0 °F 48.0 °F 72% 29.94 in 10.0 mi North 6.9 mph - N/A   Clear
2:51 AM 57.0 °F 46.9 °F 69% 29.94 in 10.0 mi North 10.4 mph - N/A   Clear
3:51 AM 52.0 °F 46.0 °F 80% 29.95 in 10.0 mi NW 4.6 mph - N/A   Clear
4:51 AM 50.0 °F 46.0 °F 86% 29.96 in 10.0 mi NW 5.8 mph - N/A   Clear
5:51 AM 52.0 °F 46.0 °F 80% 29.98 in 10.0 mi WNW 4.6 mph - N/A   Clear
6:51 AM 50.0 °F 46.0 °F 86% 30.00 in 10.0 mi WNW 5.8 mph - N/A   Clear
7:51 AM 55.0 °F 48.0 °F 77% 30.02 in 10.0 mi NW 6.9 mph - N/A   Clear
8:51 AM 60.1 °F 46.9 °F 62% 30.04 in 10.0 mi NNW 11.5 mph - N/A   Clear
9:51 AM 62.1 °F 46.9 °F 58% 30.04 in 10.0 mi NNW 13.8 mph 23.0 mph N/A   Scattered Clouds
10:51 AM 62.1 °F 46.0 °F 56% 30.06 in 10.0 mi NW 11.5 mph 17.3 mph N/A   Overcast
11:51 AM 63.0 °F 46.9 °F 56% 30.06 in 10.0 mi NNW 9.2 mph - N/A   Overcast
12:51 PM 63.0 °F 46.9 °F 56% 30.07 in 10.0 mi NNW 10.4 mph - N/A   Overcast
1:51 PM 64.9 °F 46.0 °F 50% 30.06 in 10.0 mi WNW 9.2 mph 17.3 mph N/A   Mostly Cloudy
2:51 PM 64.9 °F 45.0 °F 48% 30.07 in 10.0 mi NNW 10.4 mph - N/A   Overcast
3:51 PM 66.0 °F 45.0 °F 47% 30.06 in 10.0 mi North 10.4 mph - N/A   Mostly Cloudy
4:51 PM 64.9 °F 46.0 °F 50% 30.08 in 10.0 mi NNW 6.9 mph - N/A   Partly Cloudy
5:51 PM 64.9 °F 46.0 °F 50% 30.09 in 10.0 mi NNW 10.4 mph - N/A   Clear
6:51 PM 62.1 °F 46.0 °F 56% 30.11 in 10.0 mi North 9.2 mph - N/A   Clear
7:51 PM 57.0 °F 46.0 °F 67% 30.13 in 10.0 mi North 5.8 mph - N/A   Clear
8:51 PM 55.0 °F 46.0 °F 72% 30.15 in 10.0 mi North 5.8 mph - N/A   Clear
9:51 PM 54.0 °F 46.0 °F 75% 30.16 in 10.0 mi North 4.6 mph - N/A   Clear
10:51 PM 54.0 °F 46.0 °F 75% 30.17 in 10.0 mi North 4.6 mph - N/A   Clear
11:51 PM 50.0 °F 45.0 °F 83% 30.18 in 10.0 mi NNW 4.6 mph - N/A   Clear